Location: Colville Flats
(48.5706°N, 118.1100°W)
Time: 12:49:04
(UTC-08:00)

Tiangong 2 - Visible Passes

Search period start: 20 January 2018 00:00
Search period end: 30 January 2018 00:00
Orbit: 384 x 390 km, 42.8° (Epoch: 20 January)

Date Brightness Start Highest point End Pass type
(mag) Time Alt. Az. Time Alt. Az. Time Alt. Az.
20 Jan 4.1 04:57:13 12° SSE 04:57:13 12° SSE 04:58:12 10° SE visible
20 Jan 3.0 06:30:20 10° SW 06:33:03 26° S 06:35:47 10° ESE visible
21 Jan 3.1 05:33:43 20° S 05:34:30 22° SSE 05:37:03 10° ESE visible
22 Jan 4.4 04:37:50 11° ESE 04:37:50 11° ESE 04:38:09 10° ESE visible
22 Jan 2.7 06:10:06 14° SW 06:12:15 28° S 06:15:03 10° ESE visible
23 Jan 3.0 05:14:09 25° SSE 05:14:09 25° SSE 05:16:24 10° ESE visible
23 Jan 2.9 06:47:17 10° WSW 06:50:01 25° S 06:52:43 10° SE visible
24 Jan 2.6 05:50:26 23° SW 05:51:25 28° S 05:54:13 10° ESE visible
25 Jan 3.7 04:54:24 18° SE 04:54:24 18° SE 04:55:38 10° ESE visible
25 Jan 3.0 06:26:40 10° WSW 06:29:08 21° SSW 06:31:38 10° SE visible
26 Jan 2.7 05:30:38 25° S 05:30:38 25° S 05:33:15 10° SE visible
27 Jan 4.4 04:34:37 11° SE 04:34:37 11° SE 04:34:44 10° ESE visible
27 Jan 3.3 06:06:53 13° SW 06:08:12 16° SSW 06:10:14 10° SSE visible
28 Jan 3.5 05:10:53 17° SSE 05:10:53 17° SSE 05:12:06 10° SE visible
29 Jan 3.6 05:47:11 11° SSW 05:47:11 11° SSW 05:48:09 10° S visible
